Location: Radomski Observatory
(40.2854°N, 79.5145°W)
Time: 01:48:52
(UTC-04:00)

Cosmos 1072 Rocket - Visible Passes

Search period start: 19 September 2014 00:00
Search period end: 29 September 2014 00:00
Orbit: 950 x 1008 km, 82.9° (Epoch: 17 September)

Date Brightness Start Highest point End Pass type
(mag) Time Alt. Az. Time Alt. Az. Time Alt. Az.
19 Sep 4.7 20:25:49 10° N 20:32:15 81° W 20:38:37 10° S visible
19 Sep 7.5 22:15:10 10° WNW 22:16:35 11° WNW 22:17:59 10° W visible
20 Sep 5.7 20:52:32 10° NNW 20:58:33 44° W 21:04:31 10° SSW visible
21 Sep 4.8 19:33:25 10° N 19:39:40 51° ENE 19:45:51 10° SSE visible
21 Sep 6.8 21:19:45 10° NNW 21:24:40 24° W 21:29:35 10° SW visible
22 Sep 4.6 19:59:44 10° N 20:06:11 88° W 20:12:34 10° S visible
22 Sep 7.5 21:48:14 10° WNW 21:50:36 12° WNW 21:52:58 10° W visible
23 Sep 5.6 20:26:24 10° NNW 20:32:31 49° W 20:38:35 10° SSW visible
24 Sep 6.7 20:53:31 10° NNW 20:58:40 26° W 21:03:48 10° SW visible
25 Sep 4.6 19:33:40 10° N 19:40:07 84° E 19:46:29 10° S visible
25 Sep 7.5 21:21:38 10° NW 21:24:38 14° W 21:27:38 10° WSW visible
26 Sep 5.5 20:00:16 10° NNW 20:06:29 54° W 20:12:37 10° SSW visible
27 Sep 6.6 20:27:18 10° NNW 20:32:40 29° W 20:37:59 10° SW visible
28 Sep 7.9 06:29:41 10° ESE 06:32:20 13° ENE 06:34:59 10° NE visible
28 Sep 7.5 20:55:09 10° NW 20:58:39 15° W 21:02:08 10° WSW visible
